This is the latest recevied weather packets stored in our database for station/object DAX207-13. If no packets are shown the sender has not sent any weather packets the latest 1 day(s).
| Time | Temp. | Humidity | Pressure | Rain* | Wind** | Luminosity | Snow |
|---|---|---|---|---|---|---|---|
| 1778149824 | 7.78° C | 93% | 1017 hPa | 0 mm | - | 88 W/m² | - |
| 1778149224 | 7.78° C | 93% | 1016.7 hPa | 0 mm | - | 96 W/m² | - |
| 1778148624 | 7.78° C | 93% | 1016.6 hPa | 0 mm | - | 87 W/m² | - |
| 1778148024 | 7.78° C | 92% | 1016.5 hPa | 0 mm | - | 77 W/m² | - |
| 1778147424 | 7.78° C | 92% | 1016.5 hPa | 0 mm | - | 101 W/m² | - |
| 1778146824 | 7.78° C | 93% | 1016.4 hPa | 0 mm | - | 92 W/m² | - |
| 1778146224 | 7.78° C | 92% | 1016.2 hPa | 0 mm | - | 69 W/m² | - |
| 1778145624 | 7.78° C | 92% | 1016.1 hPa | 0 mm | - | 93 W/m² | - |
| 1778145024 | 8.33° C | 91% | 1016 hPa | 0 mm | - | 98 W/m² | - |
| 1778144424 | 8.33° C | 90% | 1015.9 hPa | 0 mm | - | 75 W/m² | - |
| 1778143824 | 8.33° C | 90% | 1015.7 hPa | 0 mm | - | 98 W/m² | - |
| 1778143224 | 8.33° C | 90% | 1015.6 hPa | 0 mm | - | 143 W/m² | - |
| 1778142624 | 7.78° C | 91% | 1015.6 hPa | 0 mm | - | 174 W/m² | - |
| 1778142024 | 7.78° C | 92% | 1015.4 hPa | 0 mm | - | 72 W/m² | - |
| 1778141424 | 7.78° C | 92% | 1015.3 hPa | 0 mm | - | 74 W/m² | - |
| 1778140824 | 7.78° C | 91% | 1015.3 hPa | 0 mm | - | 63 W/m² | - |
| 1778140224 | 7.78° C | 92% | 1015.2 hPa | 0 mm | - | 111 W/m² | - |
| 1778139624 | 7.78° C | 93% | 1015 hPa | 0 mm | - | 94 W/m² | - |
| 1778139024 | 7.78° C | 94% | 1014.9 hPa | 0 mm | - | 62 W/m² | - |
| 1778138424 | 7.78° C | 94% | 1014.9 hPa | 0 mm | - | 53 W/m² | - |
| 1778137824 | 7.22° C | 94% | 1014.7 hPa | 0 mm | - | 65 W/m² | - |
| 1778137225 | 7.22° C | 94% | 1014.8 hPa | 0 mm | - | 64 W/m² | - |
| 1778136624 | 7.22° C | 95% | 1014.5 hPa | 0 mm | - | 106 W/m² | - |
| 1778136024 | 7.22° C | 95% | 1014.5 hPa | 0 mm | - | 75 W/m² | - |
| 1778135424 | 7.22° C | 95% | 1014.3 hPa | 0 mm | - | 58 W/m² | - |
* Rain latest hour (hover to see other rain measurements)
** Current wind speed in m/s (hover to see current wind gust speed)